CW2234 Weather Reports


Display with metric or nautical units.
time (UTC)temp
F
wind
direction
speed
MPH
gust
MPH
rain 1hr
in
rain 24hr
in
rain mn
in
humidity
%
barometer
mb
20260906120122 72 0 0.0 0.0 0.02 0.02 0.02 89 1012.3
20260906114606 72 0 0.0 0.0 0.00 0.00 0.00 88 1012.0
20260906113100 72 0 0.0 0.0 0.00 0.00 0.00 87 1011.7
20260906111556 72 0 0.0 0.0 0.00 0.00 0.00 86 1011.9
20260906110108 72 0 0.0 0.0 0.00 0.00 0.00 86 1011.8
20260906104559 71 0 0.0 1.0 0.00 0.00 0.00 86 1011.8
20260906103054 72 0 0.0 2.0 0.00 0.00 0.00 87 1011.9
20260906101600 72 0 0.0 1.0 0.00 0.00 0.00 87 1012.0
20260906094558 71 0 0.0 1.0 0.00 0.00 0.00 87 1011.9
20260906093110 71 0 0.0 1.0 0.00 0.00 0.00 86 1012.2
20260906091605 71 0 0.0 0.0 0.00 0.00 0.00 86 1012.0
20260906090122 71 0 0.0 0.0 0.00 0.00 0.00 86 1011.9
20260906084558 71 0 0.0 0.0 0.00 0.00 0.00 86 1012.0
20260906083052 71 0 0.0 1.0 0.00 0.00 0.00 85 1012.2
20260906081601 71 0 0.0 1.0 0.00 0.00 0.00 85 1012.3
20260906080104 71 0 0.0 1.0 0.00 0.00 0.00 85 1012.4
20260906074600 71 0 0.0 0.0 0.00 0.00 0.00 85 1012.3
20260906073105 71 0 0.0 1.0 0.00 0.00 0.00 84 1012.3
20260906071604 71 0 0.0 2.0 0.00 0.00 0.00 84 1012.4
20260906070059 71 136 0.0 1.0 0.00 0.00 0.00 84 1012.2
20260906064604 71 136 0.0 1.0 0.00 0.00 0.00 84 1012.2
20260906063104 72 0 0.0 2.0 0.00 0.00 0.00 84 1012.3
20260906061604 72 0 0.0 1.0 0.00 0.00 0.00 85 1012.3
20260906060100 72 0 0.0 2.0 0.00 0.00 0.00 84 1012.3
20260906054556 72 0 0.0 1.0 0.00 0.00 0.00 85 1012.3
20260906053058 72 0 0.0 1.0 0.00 0.00 0.00 84 1012.7
20260906051606 72 141 0.0 2.0 0.00 0.00 0.00 84 1012.7
20260906050132 73 143 0.0 3.0 0.00 0.00 0.00 84 1012.8
20260906044559 73 122 0.0 3.0 0.00 0.00 0.00 84 1012.8
20260906043108 73 122 0.0 3.0 0.00 0.00 0.00 83 1012.7
20260906041602 73 0 0.0 3.0 0.00 0.00 0.00 82 1012.7
20260906040112 73 0 0.0 2.0 0.00 0.00 0.00 81 1012.5
20260906034558 73 0 0.0 3.0 0.00 0.00 0.00 80 1012.4
20260906033056 73 0 0.0 4.0 0.00 0.00 0.00 80 1012.3
20260906031602 73 109 0.0 7.0 0.00 0.00 0.00 80 1012.1
20260906030134 74 0 1.0 5.0 0.00 0.00 0.00 80 1011.9
20260906024557 74 140 1.0 4.0 0.00 0.00 0.00 80 1011.8
20260906023124 74 134 1.0 7.0 0.00 0.00 0.00 79 1011.8
20260906021612 74 90 0.0 6.0 0.00 0.00 0.00 79 1011.9
20260906020101 75 139 0.0 4.0 0.00 0.00 0.00 80 1011.8
20260906014553 76 150 2.0 7.0 0.00 0.00 0.00 77 1011.8
20260906013101 76 123 1.0 5.0 0.00 0.00 0.00 78 1011.7
20260906011606 77 169 3.0 9.0 0.00 0.00 0.00 76 1011.7
20260906010058 77 153 0.0 7.0 0.00 0.00 0.00 77 1011.8
20260906004556 77 140 2.0 7.0 0.00 0.00 0.00 75 1011.7
20260906003109 77 93 2.0 9.0 0.00 0.00 0.00 74 1011.8
20260906001603 78 119 2.0 9.0 0.00 0.00 0.00 72 1011.7
20260906000059 78 0 1.0 7.0 0.00 0.00 0.00 70 1011.7
20260905234607 80 103 1.0 8.0 0.00 0.00 0.00 68 1011.7
20260905233103 81 167 1.0 8.0 0.00 0.00 0.00 65 1011.7
20260905231602 81 103 1.0 7.0 0.00 0.00 0.00 65 1011.6
20260905230100 81 111 2.0 7.0 0.00 0.00 0.00 66 1011.7
20260905224610 82 168 2.0 6.0 0.00 0.00 0.00 65 1011.8
20260905223102 82 138 1.0 7.0 0.00 0.00 0.00 65 1011.9
20260905221603 83 125 2.0 8.0 0.00 0.00 0.00 63 1012.0
20260905220108 83 115 1.0 6.0 0.00 0.00 0.00 64 1012.2
20260905214611 83 101 2.0 10.0 0.00 0.00 0.00 64 1012.4
20260905213117 82 0 1.0 9.0 0.00 0.00 0.00 66 1012.5
20260905211603 83 160 1.0 7.0 0.00 0.00 0.00 66 1012.6
20260905210101 82 105 1.0 5.0 0.00 0.00 0.00 67 1012.5
20260905204559 81 147 1.0 8.0 0.00 0.00 0.00 68 1012.7
20260905203052 81 162 1.0 6.0 0.00 0.00 0.00 68 1013.0
20260905201607 81 117 1.0 7.0 0.00 0.00 0.00 70 1013.2
20260905194559 81 119 1.0 6.0 0.00 0.00 0.00 67 1013.6
20260905193101 81 142 1.0 8.0 0.00 0.00 0.00 67 1013.7
20260905191613 80 216 2.0 8.0 0.00 0.00 0.00 68 1013.7
20260905184610 80 96 1.0 5.0 0.00 0.00 0.00 68 1014.0
20260905183052 81 77 1.0 4.0 0.00 0.00 0.00 67 1014.3
20260905181606 80 120 2.0 7.0 0.00 0.00 0.00 68 1014.3
20260905180123 80 98 1.0 8.0 0.00 0.00 0.00 63 1014.4
20260905174617 78 0 1.0 5.0 0.00 0.00 0.00 61 1014.3
20260905173112 77 343 1.0 8.0 0.00 0.00 0.00 64 1014.2
20260905171609 76 276 1.0 6.0 0.00 0.00 0.00 70 1014.2
20260905170121 75 344 2.0 5.0 0.00 0.00 0.00 70 1014.3
20260905164611 74 292 2.0 6.0 0.00 0.00 0.00 72 1014.2
20260905163109 73 304 1.0 4.0 0.00 0.00 0.00 74 1014.1
20260905161600 72 238 1.0 4.0 0.00 0.00 0.00 79 1014.0
20260905160110 71 224 1.0 3.0 0.00 0.00 0.00 82 1014.0
20260905154605 70 217 0.0 4.0 0.00 0.00 0.00 84 1014.0
20260905153102 70 202 2.0 4.0 0.00 0.00 0.00 84 1013.8
20260905151558 69 0 0.0 5.0 0.00 0.00 0.00 85 1013.8
20260905150105 68 140 0.0 3.0 0.00 0.00 0.00 86 1013.7
20260905144601 67 0 0.0 2.0 0.00 0.00 0.00 88 1013.6
20260905143100 66 0 0.0 2.0 0.00 0.00 0.00 90 1013.6
20260905141612 65 119 1.0 3.0 0.00 0.00 0.00 92 1013.5
20260905140107 64 118 0.0 2.0 0.00 0.00 0.00 92 1013.3
20260905134610 63 0 0.0 1.0 0.00 0.00 0.00 92 1013.1
20260905133100 63 0 0.0 1.0 0.00 0.00 0.00 92 1013.1
20260905131559 64 0 0.0 0.0 0.00 0.00 0.00 92 1012.9
20260905130113 64 0 0.0 0.0 0.00 0.00 0.00 92 1012.8
20260905124601 64 0 0.0 0.0 0.00 0.00 0.00 91 1012.8
20260905123101 64 0 0.0 1.0 0.00 0.00 0.00 91 1012.7
20260905121602 64 0 0.0 1.0 0.00 0.00 0.00 91 1012.7